Regional Weather Roundup
Issued by NWS Goodland, KS

Home | Current Version | Previous Version | Graphics & Text | Print | Product List | Glossary On
Versions: 1 2 3 4 5 6 7 8 9 10 11 12 13 14 15 16 17 18 19 20 21 22 23 24 25 26 27 28 29 30 31 32 33 34 35 36 37 38 39 40 41 42 43 44 45 46 47 48 49 50
000
ASUS43 KGLD 110708
RWRGLD

GOODLAND FORECAST AREA HOURLY WEATHER ROUNDUP
NATIONAL WEATHER SERVICE GOODLAND KS
1200 AM MST SUN DEC 11 2016

...OFFICIAL OBSERVATIONS...

CITY           SKY/WX    TMP DP  RH WIND       PRES   REMARKS
GOODLAND KS    CLOUDY    27  22  81 W8        29.65F
HILL CITY KS   CLOUDY    24  21  88 NW3       29.68S
IMPERIAL NEB   CLOUDY    26  23  88 NW3       29.66S
MCCOOK NEB     CLOUDY    23  21  92 CALM      29.67F
AKRON CO       CLOUDY    44  28  53 NW12      29.68S
BURLINGTON CO  CLOUDY    30  21  69 W10       29.67F
LIMON CO       CLOUDY    25  21  85 W3        29.70F
$$

...UNOFFICIAL OBSERVATIONS...

CITY           SKY/WX    TMP DP  RH WIND       PRES   REMARKS
COLBY KS       CLEAR     27  27 100 W9        29.66F
LENORA KS        N/A     28  32 100 MISG        N/A
NORTON KS      CLEAR     25  19  80 CALM      29.66F
SHARON SPRINGS   N/A     25  22  87 CALM        N/A
TRENTON NEB      N/A     21  32 100 CALM        N/A
KIT CARSON CO    N/A     30  20  65 MISG        N/A
YUMA CO        CLOUDY    34  28  80 W9        29.66F
$$



USA.gov is the U.S. government's official web portal to all federal, state and local government web resources and services.